DELTA 1 DEB, 42568

Orbit data source: Space-Track

DELTA 1 DEB, 42568 is space debris in SSO originally from a launch on Sun, 23 Jul 1972 UTC launched from the Air Force Western Test Range (AFWTR). Debris objects in space refer to the collection of defunct objects orbiting the Earth. Examples of debris include non-operational satellites, rocket bodies, and fragments generated from explosions, collisions, or faulty payload assembly.

Loading next visibility...
Identifier
42568, 1972-058KB
Orbit
SSO
Country
Flag of USUS
Related business
Manufacturer
Unknown
Mission
Spacecraft
Bus & Motor
Unknown
Mass
Unknown
Launch date (UTC)
1972-07-23 (53 years ago)
Launch vehicle
Unknown
Launch site
Air Force Western Test Range (AFWTR)
Object type
Payload
Rocket body
Debris
Shape & HBR
Unknown shape, 0.1 m
Radar Cross Section
Small (<0.1 m²)

Expand to show TLE details & history
Last TLE update: 9 months ago

TLE from 9 months ago
0 DELTA 1 DEB
1 42568U 72058KB  25024.31686729  .00001635  00000-0  79445-3 0  9999
2 42568  98.9795  44.6749 0027819 252.4927 107.3208 14.19527710 18452
Epoch: 2025-01-24T07:36Z
TLE epoch observation values (Epoch: 2025-01-24T07:36:17.333Z)
Latitude
-0.00001°
Longitude
166.7209°
Altitude
835.875 km
Speed
7.432 km/s
True Right ascension
02h 58m 41s
True Declination
0° 00' 00"
Sunlit
Object was in daylight at epoch
Visualization orbit readout
Latitude
Unknown
Longitude
Unknown
Altitude
Unknown
Speed
Unknown
Apparent Right ascension
Unknown
Apparent Declination
Unknown
Sunlit
N/A
Visualization observer readout
Local Sidereal Time
08:28:28
Azimuth
Unknown
Elevation
Unknown
Doppler factor
Unknown
Orbital elements
Apogee altitude
844.159 km
Perigee altitude
804.087 km
Semi-major axis
7,202.26 km
Eccentricity
0.00278
Inclination
98.9795°
RAAN
44.6749°
Arg. of periapsis
252.4927°
True anomaly
107.62481°
Mean anomaly
107.3208°
Eccentric anomaly
107.47284°
Mean motion
3.55091 °/min
Orbital period
101.38 mins
BSTAR
0.00079445
Loading maneuver chart data...
Computing Atmospheric mass density...

Documentation

Showing up to 5 results
|